Dalhart, TX

10:03 PM CDT on October 17, 2017 (GMT -0500)
Dalhart Municipal

Weather History for KDHT - March, 2014

Change the Weather History Date:

Monday, March 3, 2014

  Actual Average Record
Temperature  
Mean Temperature 27 °F 42 °F  
Max Temperature 50 °F 57 °F 81 °F (1972)
Min Temperature 4 °F 26 °F 0 °F (1960)
Degree Days  
Heating Degree Days 38 23  
Month to date heating degree days 124 71  
Since 1 July heating degree days 3718 3714  
Cooling Degree Days 0 0  
Month to date cooling degree days 0 0  
Year to date cooling degree days 0 0  
Moisture  
Dew Point 17 °F    
Average Humidity 71    
Maximum Humidity 88    
Minimum Humidity 53    
Precipitation  
Precipitation 0.00 in 0.02 in 0.31 in (1981)
Month to date precipitation 0.09 0.07  
Year to date precipitation 0.18 0.99  
Snow  
Snow 0.00 in 0.10 in 2.00 in (1969)
Month to date snowfall 1.1 0.3  
Since 1 July snowfall 16.4 13.8  
Snow Depth 1.00 in    
Sea Level Pressure  
Sea Level Pressure 30.27 in    
Wind  
Wind Speed 11 mph (SSW)    
Max Wind Speed 26 mph    
Max Gust Speed 30 mph    
Visibility 10 miles    
Events      
T = Trace of Precipitation, MM = Missing Value Source: NWS Daily Summary

Daily Weather History Graph

Daily Weather History Graph

Search for Another Location

Airport or City:

Trip Planner

Search our weather history database for the weather conditions in past years. The results will help you decide how hot, cold, wet, or windy it might be!

Date:

Astronomy

Mar. 03, 2014 Rise Set
Actual Time 7:17 AM CST 6:47 PM CST
Civil Twilight 6:51 AM CST 7:12 PM CST
Nautical Twilight 6:22 AM CST 7:42 PM CST
Astronomical Twilight 5:52 AM CST 8:12 PM CST
Moon 8:33 AM CST (3/3) 9:45 PM CST (3/3)
Length of Visible Light 12h 20m
Length of Day
11h 29m
Waxing Crescent, 8% of the Moon is Illuminated
Mar 3
Waxing Crescent
Mar 8
First Quarter
Mar 16
Full
Mar 23
Last Quarter
Mar 30
New

Hourly Weather History & Observations

Time (CST) Temp. Windchill Dew Point Humidity Pressure Visibility Wind Dir Wind Speed Gust Speed Precip Events Conditions
12:53 AM 8.1 °F -0.5 °F 3.0 °F 80% 30.45 in 10.0 mi NNE 4.6 mph - N/A   Clear
1:53 AM 8.1 °F - 1.9 °F 76% 30.45 in 10.0 mi Calm Calm - N/A   Clear
2:53 AM 7.0 °F -3.3 °F 1.9 °F 80% 30.43 in 10.0 mi SE 5.8 mph - N/A   Clear
3:53 AM 3.9 °F -3.4 °F -0.0 °F 84% 30.43 in 10.0 mi SW 3.5 mph - N/A   Clear
4:53 AM 6.1 °F - 1.0 °F 80% 30.42 in 10.0 mi Calm Calm - N/A   Clear
5:53 AM 5.0 °F -6.9 °F -0.0 °F 80% 30.42 in 10.0 mi South 6.9 mph - N/A   Clear
6:53 AM 5.0 °F -8.1 °F 1.0 °F 84% 30.44 in 10.0 mi SSW 8.1 mph - N/A   Clear
7:53 AM 7.0 °F -6.6 °F 3.0 °F 84% 30.44 in 10.0 mi South 9.2 mph - N/A   Clear
8:53 AM 10.9 °F -4.1 °F 7.0 °F 84% 30.43 in 9.0 mi South 12.7 mph - N/A   Clear
9:32 AM 14.0 °F -1.4 °F 10.0 °F 84% 30.25 in 6.0 mi South 15.0 mph - N/A   Partly Cloudy
9:53 AM 16.0 °F 2.3 °F 12.0 °F 84% 30.38 in 7.0 mi South 12.7 mph - N/A   Mostly Cloudy
10:03 AM 18.0 °F 4.2 °F 12.9 °F 81% 30.23 in 9.0 mi South 13.8 mph - N/A   Scattered Clouds
10:30 AM 19.9 °F 7.3 °F 15.1 °F 81% 30.23 in 8.0 mi SSW 12.7 mph - N/A   Mostly Cloudy
10:53 AM 21.0 °F 8.1 °F 17.1 °F 85% 30.35 in 9.0 mi SSW 13.8 mph - N/A   Mostly Cloudy
11:10 AM 23.0 °F 9.6 °F 17.1 °F 78% 30.22 in 10.0 mi SSW 16.1 mph - N/A   Partly Cloudy
11:53 AM 27.0 °F 16.7 °F 19.9 °F 75% 30.32 in 10.0 mi SW 11.5 mph - N/A   Clear
12:53 PM 33.1 °F 24.4 °F 25.0 °F 72% 30.26 in 10.0 mi SSW 11.5 mph - N/A   Clear
1:53 PM 37.9 °F 30.5 °F 28.9 °F 70% 30.21 in 10.0 mi SSW 11.5 mph - N/A   Clear
2:53 PM 44.1 °F 35.4 °F 32.0 °F 63% 30.16 in 10.0 mi South 21.9 mph - N/A   Clear
3:53 PM 46.9 °F - 30.9 °F 54% 30.14 in 10.0 mi SSW 21.9 mph - N/A   Clear
4:53 PM 48.9 °F - 32.0 °F 52% 30.11 in 10.0 mi South 20.7 mph - N/A   Clear
5:53 PM 48.9 °F - 32.0 °F 52% 30.11 in 10.0 mi South 12.7 mph - N/A   Clear
6:53 PM 42.1 °F 37.1 °F 32.0 °F 67% 30.12 in 10.0 mi South 8.1 mph - N/A   Clear
7:53 PM 37.9 °F 32.1 °F 30.0 °F 73% 30.14 in 10.0 mi South 8.1 mph - N/A   Clear
8:53 PM 36.0 °F 28.0 °F 28.9 °F 76% 30.14 in 10.0 mi South 11.5 mph - N/A   Clear
9:53 PM 34.0 °F 25.0 °F 28.9 °F 82% 30.13 in 10.0 mi South 12.7 mph - N/A   Clear
10:53 PM 33.1 °F 23.9 °F 28.9 °F 85% 30.11 in 10.0 mi South 12.7 mph - N/A   Clear
11:53 PM 32.0 °F 22.5 °F 28.0 °F 85% 30.07 in 9.0 mi SSW 12.7 mph - N/A   Clear